Weather in Bol'shaya Shil'na

Russia / Republic of Tatarstan     55°47′13″N   52°29′31″E
temp.,
°C
wind,
m/s
gust,
m/s
humid.,
%
clouds,
%
prec.,
mm/h
press.,
hPa
HPBL,
m
23 april, fri
fri2300:00+3s410925 0.0 1027324
03:00+2s489583 0.0 1027258
06:00+4s3690100 0.0 1028293
09:00+5sse3482100 0.0 1028363
12:00+11se346133 0.0 1027894
15:00+13ese445689 0.0 10251117
18:00+10ese486818 0.0 1025238
21:00+7e3981100 0.0 1024203
24 april, sat
sat2400:00+6e41089100 0.0 1022300
03:00+6e4890100 0.0 1020291
06:00+6e3895100 0.3 1018395
09:00+6e4994100 0.8 1016659
12:00+7ese3688100 0.3 10151037
15:00+7e4891100 0.8 1013554
18:00+6se4889100 0.3 1012520
21:00+6se3693100 0.4 1011302
25 april, sun
sun2500:00+6se4892100 0.4 1009515
03:00+6se5994100 0.5 1007305
06:00+6sse61391100 2.0 1004692
09:00+4wsw51194100 5.6 1005851
12:00+8sw81162100 0.3 10061790
15:00+9wsw8136135 0.8 10081710
18:00+7wsw6125911 0.3 1010886
21:00+5sw61364100 0.3 1011571
26 april, mon
mon2600:00+4sw715685 0.0 1012705
03:00+3sw815740 0.0 1013774
06:00+4wsw814715 0.0 10141126
09:00+8wsw916551 0.0 10151874
12:00+11sw9143767 0.0 10142329
15:00+12sw8144085 0.0 10142547
18:00+10sw5105091 0.0 1014617
21:00+6sw117552 0.0 101414
27 april, tue
tue2700:00+6sse117239 0.0 101310
03:00+4sse22725 0.0 101213
06:00+6sse24645 0.0 1010131
09:00+11sse45445 0.0 10091416
12:00+12ssw5741100 0.0 10082093
15:00+13ssw684159 0.0 10062037
18:00+8wsw4866100 0.9 10071129
21:00+5sw31071100 0.9 1008270